UPS214 KOMA-KMSP

Flight info

Callsign UPS214
Flight time 1h 4m
Altitude 31000
Route ROKKK NITZR4
Aircraft B748/H-VGDW/C

Departure

Time 2026-04-20 02:53
Airport Eppley Airfield (KOMA)

Arrival

Time 2026-04-20 03:57
Airport Minneapolis–Saint Paul International Airport / Wold–Chamberlain Field (KMSP)
Time Latitude Longitude Altitude Speed Heading
2026-04-20 02:24 41.30902 -95.90696 991 ft 0 kts 144°
2026-04-20 02:38 41.30909 -95.90703 998 ft 3 kts 144°
2026-04-20 02:38 41.30924 -95.90718 991 ft 3 kts 144°
2026-04-20 02:39 41.30940 -95.90732 998 ft 3 kts 144°
2026-04-20 02:39 41.30943 -95.90735 997 ft 0 kts 144°
2026-04-20 02:47 41.30936 -95.90722 998 ft 2 kts 121°
2026-04-20 02:47 41.30934 -95.90700 996 ft 2 kts 89°
2026-04-20 02:47 41.30940 -95.90684 998 ft 2 kts 63°
2026-04-20 02:47 41.30948 -95.90672 996 ft 2 kts 47°
2026-04-20 02:48 41.30959 -95.90656 992 ft 2 kts 47°
2026-04-20 02:48 41.30971 -95.90639 998 ft 2 kts 47°
2026-04-20 02:48 41.30991 -95.90615 996 ft 6 kts 37°
2026-04-20 02:48 41.31030 -95.90600 997 ft 6 kts
2026-04-20 02:49 41.31062 -95.90619 995 ft 5 kts 319°
2026-04-20 02:49 41.31100 -95.90659 997 ft 9 kts 324°
2026-04-20 02:49 41.31163 -95.90717 999 ft 13 kts 324°
2026-04-20 02:49 41.31248 -95.90793 996 ft 13 kts 335°
2026-04-20 02:50 41.31278 -95.90791 997 ft 2 kts 24°
2026-04-20 02:50 41.31287 -95.90778 998 ft 2 kts 50°
2026-04-20 02:50 41.31300 -95.90750 999 ft 5 kts 57°
2026-04-20 02:50 41.31319 -95.90710 998 ft 5 kts 57°
2026-04-20 02:51 41.31334 -95.90679 995 ft 4 kts 57°
2026-04-20 02:51 41.31346 -95.90654 997 ft 6 kts 57°
2026-04-20 02:51 41.31365 -95.90606 995 ft 4 kts 77°
2026-04-20 02:51 41.31364 -95.90592 999 ft 2 kts 97°
2026-04-20 02:52 41.31348 -95.90567 1000 ft 4 kts 145°
2026-04-20 02:52 41.31315 -95.90545 996 ft 5 kts 143°
2026-04-20 02:52 41.31242 -95.90471 996 ft 35 kts 143°
2026-04-20 02:52 41.30778 -95.90029 996 ft 127 kts 144°
2026-04-20 02:53 41.29858 -95.89119 1083 ft 188 kts 140°
2026-04-20 02:53 41.29002 -95.87816 1482 ft 201 kts 110°
2026-04-20 02:53 41.28929 -95.85946 1985 ft 208 kts 71°
2026-04-20 02:53 41.29736 -95.84406 2669 ft 208 kts 37°
2026-04-20 02:54 41.31126 -95.83696 3002 ft 226 kts
2026-04-20 02:54 41.32742 -95.83346 3288 ft 243 kts 13°
2026-04-20 02:54 41.34389 -95.82671 3709 ft 251 kts 22°
2026-04-20 02:54 41.35963 -95.81615 4266 ft 255 kts 32°
2026-04-20 02:55 41.37354 -95.80123 4872 ft 260 kts 43°
2026-04-20 02:55 41.38581 -95.78338 5418 ft 264 kts 45°
2026-04-20 02:55 41.39834 -95.76519 6029 ft 270 kts 42°
2026-04-20 02:55 41.41163 -95.74733 6914 ft 273 kts 39°
2026-04-20 02:56 41.42525 -95.72924 7715 ft 279 kts 39°
2026-04-20 02:56 41.43881 -95.71088 8509 ft 285 kts 39°
2026-04-20 02:56 41.45283 -95.69175 9273 ft 290 kts 39°
2026-04-20 02:56 41.46721 -95.67223 9886 ft 299 kts 38°
2026-04-20 02:57 41.48175 -95.65247 9999 ft 301 kts 38°
2026-04-20 02:57 41.49623 -95.63275 10015 ft 297 kts 38°
2026-04-20 02:57 41.51143 -95.61222 10055 ft 327 kts 39°
2026-04-20 02:57 41.52804 -95.58976 10035 ft 346 kts 39°
2026-04-20 02:58 41.54488 -95.56658 10063 ft 350 kts 40°
2026-04-20 02:58 41.56183 -95.54331 10063 ft 350 kts 39°
2026-04-20 02:58 41.57904 -95.51991 10508 ft 354 kts 39°
2026-04-20 02:58 41.59611 -95.49665 11472 ft 356 kts 39°
2026-04-20 02:59 41.61348 -95.47290 12391 ft 360 kts 39°
2026-04-20 02:59 41.63108 -95.44881 13263 ft 364 kts 39°
2026-04-20 02:59 41.64891 -95.42441 14093 ft 369 kts 39°
2026-04-20 02:59 41.66697 -95.39966 14826 ft 373 kts 39°
2026-04-20 03:00 41.68515 -95.37473 15567 ft 376 kts 39°
2026-04-20 03:00 41.70348 -95.34956 16310 ft 379 kts 39°
2026-04-20 03:00 41.72199 -95.32414 17042 ft 383 kts 39°
2026-04-20 03:00 41.74067 -95.29846 17788 ft 386 kts 39°
2026-04-20 03:01 41.75948 -95.27257 18532 ft 389 kts 39°
2026-04-20 03:01 41.77846 -95.24642 19183 ft 393 kts 39°
2026-04-20 03:01 41.79755 -95.22010 19847 ft 395 kts 39°
2026-04-20 03:01 41.81676 -95.19358 20515 ft 398 kts 39°
2026-04-20 03:02 41.83610 -95.16688 21176 ft 400 kts 39°
2026-04-20 03:02 41.85553 -95.14002 21807 ft 403 kts 39°
2026-04-20 03:02 41.87509 -95.11295 22422 ft 405 kts 39°
2026-04-20 03:02 41.89475 -95.08571 23015 ft 408 kts 39°
2026-04-20 03:03 41.91457 -95.05823 23604 ft 410 kts 39°
2026-04-20 03:03 41.93448 -95.03061 24131 ft 413 kts 39°
2026-04-20 03:03 41.95427 -95.00312 24589 ft 415 kts 39°
2026-04-20 03:03 41.97439 -94.97515 25040 ft 417 kts 39°
2026-04-20 03:04 41.99463 -94.94698 25463 ft 420 kts 39°
2026-04-20 03:04 42.01497 -94.91865 25893 ft 422 kts 38°
2026-04-20 03:04 42.03540 -94.89015 26328 ft 424 kts 39°
2026-04-20 03:04 42.05595 -94.86147 26753 ft 427 kts 38°
2026-04-20 03:05 42.07660 -94.83262 27181 ft 429 kts 38°
2026-04-20 03:05 42.09737 -94.80356 27605 ft 432 kts 38°
2026-04-20 03:05 42.11823 -94.77435 28007 ft 434 kts 38°
2026-04-20 03:05 42.13925 -94.74490 28416 ft 436 kts 38°
2026-04-20 03:06 42.16032 -94.71534 28844 ft 439 kts 38°
2026-04-20 03:06 42.18155 -94.68552 29253 ft 441 kts 38°
2026-04-20 03:06 42.20285 -94.65558 29664 ft 444 kts 38°
2026-04-20 03:06 42.22426 -94.62545 30061 ft 446 kts 38°
2026-04-20 03:07 42.24579 -94.59512 30461 ft 449 kts 38°
2026-04-20 03:07 42.26743 -94.56461 30779 ft 451 kts 38°
2026-04-20 03:07 42.28917 -94.53392 31108 ft 454 kts 38°
2026-04-20 03:07 42.31106 -94.50297 31346 ft 457 kts 38°
2026-04-20 03:08 42.33308 -94.47182 31338 ft 457 kts 38°
2026-04-20 03:08 42.37683 -94.40978 31334 ft 455 kts 38°
2026-04-20 03:09 42.42028 -94.34810 31332 ft 455 kts 38°
2026-04-20 03:09 42.46395 -94.28594 31330 ft 455 kts 39°
2026-04-20 03:10 42.50765 -94.22362 31331 ft 457 kts 39°
2026-04-20 03:10 42.55137 -94.16111 31331 ft 456 kts 39°
2026-04-20 03:11 42.59503 -94.09857 31333 ft 455 kts 38°
2026-04-20 03:11 42.64370 -94.04684 31340 ft 437 kts 22°
2026-04-20 03:12 42.69665 -94.00622 31343 ft 437 kts 22°
2026-04-20 03:12 42.74930 -93.96586 31342 ft 437 kts 22°
2026-04-20 03:13 42.80224 -93.92513 31338 ft 437 kts 22°
2026-04-20 03:13 42.85524 -93.88430 31338 ft 436 kts 22°
2026-04-20 03:14 42.90783 -93.84370 31332 ft 436 kts 22°
2026-04-20 03:14 42.96053 -93.80292 31348 ft 435 kts 22°
2026-04-20 03:15 43.01316 -93.76213 31350 ft 434 kts 22°
2026-04-20 03:15 43.06559 -93.72141 31348 ft 433 kts 22°
2026-04-20 03:16 43.11795 -93.68066 31345 ft 432 kts 22°
2026-04-20 03:16 43.17027 -93.63986 31341 ft 432 kts 22°
2026-04-20 03:17 43.22249 -93.59905 31341 ft 432 kts 22°
2026-04-20 03:17 43.27574 -93.56233 31340 ft 422 kts 12°
2026-04-20 03:18 43.33222 -93.54717 31348 ft 409 kts 359°
2026-04-20 03:18 43.38906 -93.54209 31344 ft 409 kts 358°
2026-04-20 03:19 43.44579 -93.53720 31347 ft 409 kts 358°
2026-04-20 03:19 43.50255 -93.53220 31340 ft 409 kts 358°
2026-04-20 03:20 43.55933 -93.52674 31332 ft 409 kts 359°
2026-04-20 03:20 43.61568 -93.52133 31326 ft 407 kts 359°
2026-04-20 03:21 43.67225 -93.51592 31323 ft 407 kts 359°
2026-04-20 03:21 43.72874 -93.51047 31331 ft 406 kts 359°
2026-04-20 03:22 43.78511 -93.50505 31335 ft 406 kts 359°
2026-04-20 03:22 43.84144 -93.49960 31338 ft 406 kts 359°
2026-04-20 03:23 43.89747 -93.49418 31353 ft 405 kts 359°
2026-04-20 03:23 43.95369 -93.48873 31346 ft 405 kts 359°
2026-04-20 03:24 44.00990 -93.48327 31351 ft 405 kts 359°
2026-04-20 03:24 44.06606 -93.47781 31349 ft 404 kts 359°
2026-04-20 03:25 44.12221 -93.47233 31348 ft 404 kts 359°
2026-04-20 03:25 44.14984 -93.46959 31332 ft 392 kts 359°
2026-04-20 03:25 44.17652 -93.46558 31329 ft 382 kts
2026-04-20 03:26 44.22787 -93.44304 31332 ft 394 kts 14°
2026-04-20 03:26 44.27848 -93.41518 31337 ft 393 kts 14°
2026-04-20 03:27 44.32928 -93.38681 31342 ft 393 kts 14°
2026-04-20 03:27 44.37970 -93.35640 31337 ft 397 kts 19°
2026-04-20 03:27 44.40404 -93.33900 31329 ft 385 kts 19°
2026-04-20 03:28 44.42743 -93.32215 31327 ft 372 kts 19°
2026-04-20 03:28 44.48829 -93.25877 31331 ft 376 kts 40°
2026-04-20 03:29 44.51891 -93.19739 31334 ft 385 kts 45°
2026-04-20 03:29 44.54878 -93.13500 31342 ft 385 kts 45°
2026-04-20 03:30 44.57818 -93.07323 31333 ft 376 kts 45°
2026-04-20 03:30 44.59245 -93.04313 31325 ft 364 kts 45°
2026-04-20 03:30 44.60771 -93.01634 31343 ft 340 kts 34°
2026-04-20 03:31 44.62490 -92.99521 31330 ft 318 kts 24°
2026-04-20 03:31 44.64262 -92.97716 31071 ft 310 kts 20°
2026-04-20 03:31 44.66154 -92.96359 30627 ft 304 kts 17°
2026-04-20 03:31 44.67887 -92.94493 30347 ft 327 kts 40°
2026-04-20 03:32 44.69125 -92.91698 29921 ft 345 kts 53°
2026-04-20 03:32 44.70085 -92.88549 29437 ft 353 kts 57°
2026-04-20 03:32 44.70943 -92.85284 28967 ft 358 kts 59°
2026-04-20 03:32 44.71768 -92.81974 28528 ft 360 kts 59°
2026-04-20 03:33 44.72585 -92.78644 28134 ft 360 kts 59°
2026-04-20 03:33 44.73329 -92.75258 27758 ft 367 kts 67°
2026-04-20 03:33 44.73578 -92.71619 27422 ft 381 kts 81°
2026-04-20 03:33 44.73431 -92.67858 27066 ft 386 kts 86°
2026-04-20 03:34 44.73147 -92.64095 26724 ft 387 kts 88°
2026-04-20 03:34 44.72822 -92.60385 26397 ft 387 kts 88°
2026-04-20 03:34 44.72478 -92.56628 26083 ft 386 kts 88°
2026-04-20 03:34 44.72131 -92.52887 25780 ft 385 kts 88°
2026-04-20 03:35 44.71716 -92.49155 25476 ft 389 kts 95°
2026-04-20 03:35 44.70860 -92.45517 25199 ft 399 kts 114°
2026-04-20 03:35 44.69203 -92.42362 24952 ft 404 kts 136°
2026-04-20 03:35 44.66913 -92.40116 24682 ft 401 kts 159°
2026-04-20 03:36 44.64291 -92.38894 24387 ft 396 kts 171°
2026-04-20 03:36 44.61598 -92.38131 24068 ft 394 kts 175°
2026-04-20 03:36 44.59809 -92.37718 23854 ft 393 kts 176°
2026-04-20 03:36 44.57111 -92.37147 23495 ft 392 kts 177°
2026-04-20 03:37 44.54434 -92.37024 23188 ft 376 kts 197°
2026-04-20 03:37 44.51910 -92.37767 22877 ft 366 kts 205°
2026-04-20 03:37 44.49487 -92.38805 22553 ft 363 kts 208°
2026-04-20 03:37 44.47109 -92.39933 22222 ft 360 kts 208°
2026-04-20 03:38 44.44747 -92.41090 21913 ft 358 kts 209°
2026-04-20 03:38 44.42400 -92.42252 21610 ft 357 kts 209°
2026-04-20 03:38 44.40068 -92.43412 21317 ft 355 kts 209°
2026-04-20 03:38 44.37746 -92.44569 21026 ft 353 kts 209°
2026-04-20 03:39 44.35437 -92.45722 20742 ft 352 kts 209°
2026-04-20 03:39 44.33138 -92.46872 20465 ft 350 kts 209°
2026-04-20 03:39 44.30890 -92.48096 20179 ft 339 kts 221°
2026-04-20 03:39 44.29170 -92.50091 19979 ft 308 kts 246°
2026-04-20 03:40 44.28225 -92.52613 19721 ft 286 kts 262°
2026-04-20 03:40 44.27683 -92.55251 19411 ft 280 kts 267°
2026-04-20 03:40 44.27267 -92.57900 19120 ft 279 kts 269°
2026-04-20 03:40 44.26894 -92.60545 18831 ft 278 kts 269°
2026-04-20 03:41 44.26536 -92.63186 18570 ft 277 kts 269°
2026-04-20 03:41 44.26183 -92.65827 18261 ft 276 kts 269°
2026-04-20 03:41 44.25838 -92.68453 17960 ft 275 kts 269°
2026-04-20 03:41 44.25498 -92.71071 17659 ft 274 kts 269°
2026-04-20 03:42 44.25168 -92.73643 17367 ft 273 kts 269°
2026-04-20 03:42 44.24839 -92.76250 17091 ft 272 kts 269°
2026-04-20 03:42 44.24516 -92.78842 16802 ft 271 kts 269°
2026-04-20 03:42 44.24199 -92.81429 16520 ft 270 kts 269°
2026-04-20 03:43 44.23887 -92.84005 16244 ft 269 kts 269°
2026-04-20 03:43 44.23579 -92.86580 15981 ft 268 kts 269°
2026-04-20 03:43 44.23277 -92.89144 15704 ft 267 kts 269°
2026-04-20 03:43 44.22982 -92.91695 15441 ft 266 kts 269°
2026-04-20 03:44 44.22692 -92.94239 15191 ft 265 kts 269°
2026-04-20 03:44 44.22409 -92.96778 14947 ft 264 kts 269°
2026-04-20 03:44 44.22234 -92.99295 14698 ft 254 kts 285°
2026-04-20 03:44 44.22820 -93.01500 14504 ft 237 kts 306°
2026-04-20 03:45 44.23838 -93.03301 13895 ft 236 kts 317°
2026-04-20 03:45 44.25139 -93.04680 13391 ft 232 kts 329°
2026-04-20 03:45 44.26645 -93.05568 13108 ft 246 kts 342°
2026-04-20 03:45 44.28361 -93.05876 12776 ft 253 kts 356°
2026-04-20 03:46 44.30132 -93.05578 12429 ft 259 kts
2026-04-20 03:46 44.31923 -93.05187 12069 ft 261 kts
2026-04-20 03:46 44.33732 -93.04833 11713 ft 264 kts
2026-04-20 03:46 44.35560 -93.04490 11362 ft 266 kts
2026-04-20 03:47 44.37405 -93.04136 11002 ft 269 kts
2026-04-20 03:47 44.39271 -93.03772 10643 ft 272 kts
2026-04-20 03:47 44.41156 -93.03405 10285 ft 275 kts
2026-04-20 03:47 44.43059 -93.03036 9898 ft 277 kts
2026-04-20 03:48 44.44966 -93.02666 9520 ft 276 kts
2026-04-20 03:48 44.46835 -93.02300 9157 ft 266 kts
2026-04-20 03:48 44.48639 -93.01948 8806 ft 258 kts
2026-04-20 03:48 44.50386 -93.01609 8482 ft 250 kts
2026-04-20 03:49 44.52092 -93.01278 8154 ft 244 kts
2026-04-20 03:49 44.53770 -93.00952 7863 ft 243 kts
2026-04-20 03:49 44.55447 -93.00626 7618 ft 241 kts
2026-04-20 03:49 44.57122 -93.00300 7507 ft 244 kts
2026-04-20 03:50 44.58802 -92.99972 7397 ft 244 kts
2026-04-20 03:50 44.60485 -92.99644 7274 ft 244 kts
2026-04-20 03:50 44.62169 -92.99294 7146 ft 245 kts 11°
2026-04-20 03:50 44.63681 -92.98248 7122 ft 250 kts 33°
2026-04-20 03:51 44.65064 -92.96747 7131 ft 251 kts 35°
2026-04-20 03:51 44.66432 -92.95192 6914 ft 255 kts 36°
2026-04-20 03:51 44.67804 -92.93653 6469 ft 249 kts 33°
2026-04-20 03:51 44.69310 -92.92646 6138 ft 234 kts
2026-04-20 03:52 44.70890 -92.92659 5823 ft 223 kts 344°
2026-04-20 03:52 44.72258 -92.93553 5526 ft 213 kts 322°
2026-04-20 03:52 44.73455 -92.94810 5242 ft 215 kts 322°
2026-04-20 03:52 44.74643 -92.96070 4941 ft 214 kts 322°
2026-04-20 03:53 44.75831 -92.97326 4672 ft 213 kts 322°
2026-04-20 03:53 44.77016 -92.98578 4386 ft 213 kts 322°
2026-04-20 03:53 44.78171 -92.99888 4104 ft 213 kts 319°
2026-04-20 03:53 44.79187 -93.01401 3811 ft 214 kts 306°
2026-04-20 03:54 44.79993 -93.03139 3554 ft 209 kts 303°
2026-04-20 03:54 44.80741 -93.04853 3269 ft 202 kts 303°
2026-04-20 03:54 44.81462 -93.06522 3002 ft 193 kts 303°
2026-04-20 03:54 44.82125 -93.08061 2888 ft 188 kts 303°
2026-04-20 03:55 44.82775 -93.09570 2630 ft 172 kts 303°
2026-04-20 03:55 44.83382 -93.10959 2414 ft 164 kts 304°
2026-04-20 03:55 44.83966 -93.12307 2203 ft 160 kts 304°
2026-04-20 03:55 44.84538 -93.13628 2003 ft 159 kts 304°
2026-04-20 03:56 44.85117 -93.14960 1761 ft 160 kts 304°
2026-04-20 03:56 44.85695 -93.16293 1515 ft 159 kts 303°
2026-04-20 03:56 44.86271 -93.17623 1290 ft 159 kts 302°
2026-04-20 03:56 44.86844 -93.18948 1071 ft 158 kts 302°
2026-04-20 03:57 44.87415 -93.20266 845 ft 157 kts 301°
2026-04-20 03:57 44.87956 -93.21502 821 ft 128 kts 303°
2026-04-20 03:57 44.88259 -93.22210 826 ft 34 kts 301°
2026-04-20 03:57 44.88344 -93.22413 827 ft 16 kts 291°
2026-04-20 03:58 44.88321 -93.22517 824 ft 9 kts 224°
2026-04-20 03:58 44.88273 -93.22582 827 ft 11 kts 224°
2026-04-20 03:58 44.88213 -93.22663 825 ft 13 kts 225°
2026-04-20 03:58 44.88142 -93.22765 824 ft 16 kts 225°
2026-04-20 03:59 44.88055 -93.22889 827 ft 19 kts 225°
2026-04-20 03:59 44.88029 -93.23045 826 ft 16 kts 294°
2026-04-20 03:59 44.88093 -93.23189 824 ft 19 kts 301°
2026-04-20 03:59 44.88128 -93.23293 827 ft 6 kts 276°
2026-04-20 04:00 44.88116 -93.23345 823 ft 4 kts 234°
2026-04-20 04:00 44.88094 -93.23367 824 ft 5 kts 214°
2026-04-20 04:00 44.88089 -93.23371 831 ft 2 kts 209°
2026-04-20 04:00 44.88085 -93.23374 831 ft 0 kts 209°